• în Republica Moldova
  • Lista ţărilor
  • Pe 7 zile
  • Temperatura apei
  • Hartă satelitară
  • Meteo pe hartă
  • Widget-uri
  • user-avatar
    Intrare

    Meteo pe oră la Linz

    Astăzi, 29 Iunie, Joi

    Timp Temperatura Precipitaţii Vânt Presiune Umiditate
    00:00 +17°C° 0,2 mm 2 m/s 720 mmHg 88%
    01:00 +17°C° 0,2 mm 2 m/s 719 mmHg 89%
    02:00 +16°C° 0,1 mm 2 m/s 719 mmHg 90%
    03:00 +16°C° 0,1 mm 3 m/s 719 mmHg 92%
    04:00 +15°C° 0,1 mm 4 m/s 719 mmHg 93%
    05:00 +15°C° 0,1 mm 4 m/s 719 mmHg 91%
    06:00 +17°C° 0,1 mm 4 m/s 720 mmHg 90%
    07:00 +16°C° 0,1 mm 5 m/s 720 mmHg 89%
    08:00 +17°C° 0,1 mm 5 m/s 721 mmHg 85%
    09:00 +17°C° 0,1 mm 5 m/s 721 mmHg 81%
    10:00 +19°C° 0,1 mm 5 m/s 721 mmHg 77%
    11:00 +20°C° 0,1 mm 5 m/s 722 mmHg 73%
    12:00 +21°C° 0,1 mm 5 m/s 722 mmHg 70%
    13:00 +22°C° 0,1 mm 5 m/s 723 mmHg 66%
    14:00 +22°C° 0,1 mm 4 m/s 723 mmHg 68%
    15:00 +22°C° 0,1 mm 4 m/s 723 mmHg 69%
    16:00 +22°C° 0,1 mm 3 m/s 723 mmHg 71%
    17:00 +21°C° 0,1 mm 2 m/s 723 mmHg 77%
    18:00 +20°C° 0,1 mm 2 m/s 723 mmHg 82%
    19:00 +19°C° 0,1 mm 2 m/s 723 mmHg 87%
    20:00 +18°C° 0,3 mm 2 m/s 724 mmHg 89%
    21:00 +17°C° 0,3 mm 3 m/s 724 mmHg 90%
    22:00 +16°C° 0,3 mm 3 m/s 725 mmHg 92%
    23:00 +16°C° 0,1 mm 3 m/s 725 mmHg 92%

    Mâine, 30 Iunie, Vineri

    Timp Temperatura Precipitaţii Vânt Presiune Umiditate
    00:00 +14°C° 0,1 mm 3 m/s 725 mmHg 92%
    01:00 +15°C° 0,1 mm 2 m/s 725 mmHg 92%
    02:00 +14°C° 0 mm 2 m/s 726 mmHg 92%
    03:00 +13°C° 0 mm 2 m/s 726 mmHg 93%
    04:00 +13°C° 0 mm 1 m/s 726 mmHg 93%
    05:00 +13°C° 0 mm 2 m/s 726 mmHg 91%
    06:00 +14°C° 0 mm 2 m/s 727 mmHg 89%
    07:00 +15°C° 0 mm 2 m/s 727 mmHg 86%
    08:00 +16°C° 0,1 mm 2 m/s 727 mmHg 82%
    09:00 +17°C° 0,1 mm 2 m/s 728 mmHg 77%
    10:00 +18°C° 0,1 mm 2 m/s 728 mmHg 73%
    11:00 +19°C° 0,1 mm 2 m/s 728 mmHg 67%
    12:00 +21°C° 0,1 mm 3 m/s 728 mmHg 61%
    13:00 +22°C° 0,1 mm 3 m/s 728 mmHg 56%
    14:00 +23°C° 0,1 mm 2 m/s 728 mmHg 56%
    15:00 +23°C° 0,1 mm 2 m/s 728 mmHg 56%
    16:00 +23°C° 0,1 mm 2 m/s 728 mmHg 57%
    17:00 +22°C° 0 mm 1 m/s 728 mmHg 64%
    18:00 +21°C° 0 mm 1 m/s 728 mmHg 71%
    19:00 +20°C° 0 mm 1 m/s 728 mmHg 78%
    20:00 +18°C° 0,2 mm 1 m/s 728 mmHg 82%
    21:00 +16°C° 0,2 mm 1 m/s 728 mmHg 86%
    22:00 +14°C° 0,2 mm 1 m/s 728 mmHg 89%
    23:00 +14°C° 0,4 mm 1 m/s 728 mmHg 90%

    Poimâine, 1 Iulie, Sâmbătă

    Timp Temperatura Precipitaţii Vânt Presiune Umiditate
    00:00 +14°C° 0,4 mm 1 m/s 728 mmHg 90%
    01:00 +14°C° 0,4 mm 1 m/s 728 mmHg 90%
    02:00 +14°C° 0,7 mm 2 m/s 728 mmHg 92%
    03:00 +14°C° 0,7 mm 2 m/s 728 mmHg 94%
    04:00 +13°C° 0,7 mm 3 m/s 728 mmHg 95%
    05:00 +13°C° 1,1 mm 3 m/s 729 mmHg 95%
    06:00 +13°C° 1,1 mm 3 m/s 729 mmHg 95%
    07:00 +13°C° 1,1 mm 4 m/s 730 mmHg 95%
    08:00 +14°C° 0,3 mm 4 m/s 730 mmHg 91%
    09:00 +15°C° 0,3 mm 4 m/s 730 mmHg 86%
    10:00 +18°C° 0,3 mm 4 m/s 730 mmHg 81%
    11:00 +19°C° 0,1 mm 4 m/s 730 mmHg 74%
    12:00 +20°C° 0,1 mm 4 m/s 730 mmHg 68%
    13:00 +22°C° 0,1 mm 5 m/s 730 mmHg 61%
    14:00 +21°C° 0,1 mm 4 m/s 730 mmHg 63%
    15:00 +21°C° 0,1 mm 4 m/s 730 mmHg 64%
    16:00 +21°C° 0,1 mm 4 m/s 730 mmHg 65%
    17:00 +20°C° 0,1 mm 4 m/s 730 mmHg 71%
    18:00 +19°C° 0,1 mm 3 m/s 730 mmHg 77%
    19:00 +18°C° 0,1 mm 2 m/s 730 mmHg 82%
    20:00 +17°C° 0,2 mm 2 m/s 731 mmHg 86%
    21:00 +16°C° 0,2 mm 2 m/s 731 mmHg 90%
    22:00 +15°C° 0,2 mm 2 m/s 731 mmHg 93%
    23:00 +14°C° 0,1 mm 3 m/s 731 mmHg 94%

    2 Iulie, Duminică

    Timp Temperatura Precipitaţii Vânt Presiune Umiditate
    00:00 +13°C° 0,1 mm 3 m/s 731 mmHg 95%
    01:00 +13°C° 0,1 mm 3 m/s 731 mmHg 96%
    02:00 +13°C° 0,2 mm 4 m/s 731 mmHg 95%
    03:00 +13°C° 0,2 mm 4 m/s 731 mmHg 95%
    04:00 +13°C° 0,2 mm 5 m/s 731 mmHg 95%
    05:00 +13°C° 0,3 mm 5 m/s 732 mmHg 95%
    06:00 +13°C° 0,3 mm 5 m/s 732 mmHg 95%
    07:00 +13°C° 0,3 mm 5 m/s 732 mmHg 94%
    08:00 +14°C° 0,7 mm 6 m/s 732 mmHg 94%
    09:00 +14°C° 0,7 mm 6 m/s 733 mmHg 94%
    10:00 +14°C° 0,7 mm 6 m/s 733 mmHg 94%
    11:00 +14°C° 0,4 mm 6 m/s 733 mmHg 93%
    12:00 +14°C° 0,4 mm 6 m/s 734 mmHg 92%
    13:00 +14°C° 0,4 mm 5 m/s 734 mmHg 91%
    14:00 +15°C° 0,1 mm 5 m/s 734 mmHg 89%
    15:00 +15°C° 0,1 mm 5 m/s 734 mmHg 87%
    16:00 +16°C° 0,1 mm 5 m/s 734 mmHg 84%
    17:00 +16°C° 0,1 mm 5 m/s 734 mmHg 85%
    18:00 +16°C° 0,1 mm 5 m/s 735 mmHg 87%
    19:00 +15°C° 0,1 mm 5 m/s 735 mmHg 88%
    20:00 +15°C° 0,1 mm 4 m/s 735 mmHg 90%
    21:00 +14°C° 0,1 mm 4 m/s 736 mmHg 92%
    22:00 +14°C° 0,1 mm 4 m/s 736 mmHg 94%
    23:00 +14°C° 0,5 mm 4 m/s 736 mmHg 95%

    3 Iulie, Luni

    Timp Temperatura Precipitaţii Vânt Presiune Umiditate
    00:00 +14°C° 0,5 mm 4 m/s 736 mmHg 96%
    01:00 +14°C° 0,5 mm 4 m/s 736 mmHg 97%
    02:00 +14°C° 0,5 mm 3 m/s 736 mmHg 97%
    03:00 +14°C° 0,5 mm 3 m/s 736 mmHg 97%
    04:00 +13°C° 0,5 mm 3 m/s 736 mmHg 97%
    05:00 +14°C° 0,2 mm 3 m/s 736 mmHg 97%
    06:00 +14°C° 0,2 mm 3 m/s 737 mmHg 96%
    07:00 +14°C° 0,2 mm 4 m/s 737 mmHg 95%
    08:00 +15°C° 0,2 mm 4 m/s 737 mmHg 90%
    09:00 +17°C° 0,2 mm 4 m/s 737 mmHg 84%
    10:00 +18°C° 0,2 mm 4 m/s 737 mmHg 79%
    11:00 +19°C° 0,1 mm 4 m/s 737 mmHg 74%
    12:00 +20°C° 0,1 mm 5 m/s 737 mmHg 68%
    13:00 +21°C° 0,1 mm 5 m/s 736 mmHg 63%
    14:00 +21°C° 0,1 mm 5 m/s 736 mmHg 63%
    15:00 +21°C° 0,1 mm 4 m/s 736 mmHg 63%
    16:00 +21°C° 0,1 mm 4 m/s 736 mmHg 63%
    17:00 +20°C° 0,1 mm 3 m/s 736 mmHg 69%
    18:00 +19°C° 0,1 mm 3 m/s 736 mmHg 76%
    19:00 +18°C° 0,1 mm 2 m/s 735 mmHg 83%
    20:00 +17°C° 0 mm 2 m/s 736 mmHg 86%
    21:00 +15°C° 0 mm 2 m/s 736 mmHg 90%
    22:00 +14°C° 0 mm 2 m/s 736 mmHg 93%
    23:00 +14°C° 0,1 mm 2 m/s 736 mmHg 94%

    4 Iulie, Marţi

    Timp Temperatura Precipitaţii Vânt Presiune Umiditate
    00:00 +13°C° 0,1 mm 2 m/s 735 mmHg 94%
    01:00 +13°C° 0,1 mm 2 m/s 735 mmHg 95%
    02:00 +13°C° 0,1 mm 2 m/s 735 mmHg 95%
    03:00 +12°C° 0,1 mm 2 m/s 735 mmHg 95%
    04:00 +12°C° 0,1 mm 2 m/s 735 mmHg 96%
    05:00 +14°C° 0,1 mm 2 m/s 735 mmHg 93%
    06:00 +14°C° 0,1 mm 3 m/s 735 mmHg 91%
    07:00 +17°C° 0,1 mm 4 m/s 735 mmHg 88%
    08:00 +18°C° 0,2 mm 4 m/s 735 mmHg 83%
    09:00 +19°C° 0,2 mm 5 m/s 735 mmHg 78%
    10:00 +20°C° 0,2 mm 5 m/s 735 mmHg 72%
    11:00 +21°C° 0,1 mm 5 m/s 735 mmHg 68%
    12:00 +21°C° 0,1 mm 5 m/s 735 mmHg 65%
    13:00 +22°C° 0,1 mm 5 m/s 735 mmHg 61%
    14:00 +22°C° 0,1 mm 5 m/s 734 mmHg 62%
    15:00 +22°C° 0,1 mm 5 m/s 734 mmHg 62%
    16:00 +22°C° 0,1 mm 5 m/s 734 mmHg 63%
    17:00 +21°C° 0 mm 4 m/s 734 mmHg 69%
    18:00 +20°C° 0 mm 3 m/s 734 mmHg 75%
    19:00 +19°C° 0 mm 2 m/s 734 mmHg 81%
    20:00 +17°C° 0 mm 2 m/s 735 mmHg 85%
    21:00 +15°C° 0 mm 1 m/s 735 mmHg 89%
    22:00 +14°C° 0 mm 1 m/s 735 mmHg 93%
    23:00 +13°C° 0 mm 1 m/s 735 mmHg 93%
    Arată mai mult